Flag for U.S.A. Weather past 2 weeks in Bryan – College Station, Texas, U.S.A.

Now
63 °F

Sunny.


Feels Like: 63 °F
Forecast: 54 / 76 °F
Wind: 8 mph from East

Location: Easterwood Field

Current Time: Apr 21, 2015 at 9:51:19 AM

Latest Report: Apr 21, 2015 at 8:53 AM


Visibility: 10 mi

Pressure: 30.02 "Hg

Humidity: 60%

Dew point: 49 °F

Location of Bryan – College StationLocation

Historic Weather in Bryan – College Station — Graph

°F

Bryan – College Station temperature yesterday

Maximum temperature yesterday: 73 °F (at 4:53 PM)
Minimum temperature yesterday: 53 °F (at 6:53 AM)
Average temperature yesterday: 64 °F

Past Weeks' High & Low Weather Summary

 TemperatureHumidityPressure
High84 °F (Apr 7, 1:53 PM)100% (Apr 19, 3:53 AM)30.16 "Hg (Apr 19, 3:53 AM)
Low53 °F (Apr 20, 6:53 AM)34% (Apr 20, 3:53 PM)29.71 "Hg (Apr 19, 3:53 PM)
Average70 °F77%29.93 "Hg
* Reported Apr 6 7:53 AM — Apr 21 7:53 AM, Bryan – College Station, Weather by CustomWeather, © 2015

Note: Actual official high and low records may vary slightly from our data, if they occured in-between our weather recording intervals... More about our weather records

Advertising

Bryan – College Station weather history for previous 24 hours

 ConditionsComfort  
Time TempWeatherWind HumidityBarometerVisibility
7:53 AM
Tue, Apr 21
58 °FSunny.6 mph75%30.01 "Hg10 mi
6:53 AM55 °FClear.6 mph80%29.98 "Hg10 mi
5:53 AM56 °FClear.7 mph75%29.96 "Hg10 mi
4:53 AM57 °FClear.6 mph69%29.97 "Hg10 mi
3:53 AM57 °FClear.5 mph78%29.98 "Hg10 mi
2:53 AM59 °FClear.6 mph75%29.97 "Hg10 mi
1:53 AM61 °FPassing clouds.6 mph70%29.98 "Hg10 mi
12:53 AM63 °FOvercast.3 mph60%29.99 "Hg10 mi
11:53 PM
Mon, Apr 20
64 °FPassing clouds.5 mph63%30.00 "Hg10 mi
10:53 PM65 °FPassing clouds.No wind56%30.01 "Hg10 mi
9:53 PM65 °FClear.No wind52%29.98 "Hg10 mi
8:53 PM65 °FSunny.3 mph54%29.96 "Hg10 mi
7:53 PM66 °FSunny.5 mph52%29.95 "Hg10 mi
6:53 PM69 °FSunny.9 mph41%29.93 "Hg10 mi
5:53 PM71 °FSunny.5 mph38%29.93 "Hg10 mi
4:53 PM73 °FSunny.7 mph34%29.93 "Hg10 mi
3:53 PM71 °FSunny.6 mph34%29.94 "Hg10 mi
2:53 PM72 °FSunny.5 mph37%29.96 "Hg10 mi
1:53 PM70 °FSunny.8 mph37%29.98 "Hg10 mi
12:53 PM68 °FSunny.14 mph38%30.00 "Hg10 mi
11:53 AM67 °FSunny.10 mph37%30.02 "Hg10 mi
10:53 AM65 °FSunny.14 mph40%30.03 "Hg10 mi
9:53 AM62 °FSunny.14 mph44%30.01 "Hg10 mi
Weather by CustomWeather, © 2015

See weather overviewHow to use our weather pages